Date,TemperatureHighF,TemperatureAvgF,TemperatureLowF,DewpointHighF,DewpointAvgF,DewpointLowF,HumidityHigh,HumidityAvg,HumidityLow,PressureMaxIn,PressureMinIn,WindSpeedMaxMPH,WindSpeedAvgMPH,GustSpeedMaxMPH,PrecipitationSumIn
2013-1-1,37.8,31.6,18.7,27.0,18.0,4.6,72,57,44,29.92,29.68,10,4,20,0.00
2013-1-2,29.2,19.7,9.6,17.0,8.5,-3.4,72,61,53,30.09,29.88,8,3,16,0.00
2013-1-3,26.1,14.1,5.0,12.5,0.3,-5.7,79,55,29,30.12,29.98,5,2,11,0.00
2013-1-4,37.2,29.6,18.1,25.3,20.8,11.8,84,70,56,29.97,29.78,10,3,18,0.03
2013-1-5,42.3,33.3,22.4,25.9,22.0,17.5,88,65,39,30.25,29.82,6,2,15,0.04
2013-1-6,43.6,32.3,22.8,29.1,25.9,19.5,89,78,56,30.21,29.92,7,2,13,0.03
2013-1-7,38.9,31.9,23.5,30.2,24.4,18.9,93,75,48,30.40,29.94,5,1,13,0.01
2013-1-8,46.5,35.9,26.9,30.3,27.9,24.1,92,74,50,30.35,30.24,9,3,17,0.00
2013-1-9,44.9,35.7,23.4,36.1,29.2,21.9,95,78,53,30.39,29.98,8,2,16,0.00
2013-1-10,47.4,41.8,31.1,29.6,25.8,23.9,75,53,42,30.53,30.00,11,4,27,0.00
2013-1-11,40.7,34.2,25.0,36.9,29.3,22.3,95,83,69,30.51,30.23,5,1,19,0.10
2013-1-12,44.6,41.3,38.1,42.5,40.1,36.8,98,95,89,30.23,30.11,4,1,8,0.06
2013-1-13,52.4,46.6,41.4,49.8,45.6,40.6,99,96,90,30.13,29.97,7,2,11,0.03
2013-1-14,62.7,52.3,41.7,52.3,43.3,27.5,96,74,42,30.24,29.83,9,4,17,0.01
2013-1-15,41.9,37.7,31.6,28.5,27.0,25.8,87,66,56,30.31,30.20,2,0,17,0.00
2013-1-16,33.3,32.2,29.9,32.3,29.9,24.6,96,91,71,30.23,29.81,2,0,6,0.20
2013-1-17,42.1,34.6,29.0,33.4,27.3,11.9,97,76,48,30.09,29.81,7,2,16,0.34
2013-1-18,29.0,22.2,16.9,12.7,2.4,-5.7,59,42,29,30.44,30.05,9,3,21,0.00
2013-1-19,48.6,37.6,22.8,32.9,23.5,7.4,73,57,41,30.38,29.87,12,6,24,0.00
2013-1-20,53.4,41.7,28.6,34.0,26.4,11.2,74,56,33,29.89,29.51,14,7,25,0.00
2013-1-21,28.9,25.1,21.1,20.9,10.7,4.0,90,56,40,30.08,29.78,8,3,22,0.00
2013-1-22,25.6,20.5,12.7,19.9,9.7,-0.1,92,65,38,30.06,29.73,7,3,16,0.00
2013-1-23,16.6,11.1,5.3,3.3,-7.4,-13.4,66,44,27,30.12,30.05,9,4,17,0.00
2013-1-24,19.7,10.7,2.2,-5.9,-9.5,-12.4,62,40,27,30.19,30.03,8,4,21,0.00
2013-1-25,25.1,16.4,7.8,10.1,-6.0,-9.8,70,37,23,30.28,30.05,9,3,17,0.00
2013-1-26,24.9,17.7,11.1,11.5,3.0,-9.1,86,56,28,30.20,29.99,7,3,19,0.00
2013-1-27,31.1,21.0,13.0,4.5,1.1,-3.0,66,44,25,30.45,30.20,7,3,16,0.00
2013-1-28,30.2,24.0,15.6,26.0,13.1,1.1,94,66,35,30.43,30.01,6,1,11,0.00
2013-1-29,35.3,30.4,25.3,32.3,27.8,23.3,96,90,81,30.18,30.01,2,0,5,0.12
2013-1-30,61.5,49.4,33.4,57.3,47.5,32.3,99,93,84,30.15,29.46,13,6,22,0.19
2013-1-31,61.7,49.6,32.4,59.0,39.9,17.8,95,71,38,29.54,28.94,21,11,41,0.35
2013-2-1,28.9,27.8,27.3,14.3,12.7,10.4,57,53,47,29.74,29.68,7,5,26,0.00